When you browse on this site, cookies collect data to enhance your experience and personalize the content and advertising you see.
Visit our Privacy Policy to learn more. By continuing to use the site, you agree to this use of cookies and data.
  • In Hungary
  • List of Countries
  • For 7 days
  • Water Temperature
  • Weather Map
  • News
  • Weather Widgets
  • user-avatar
    Login

    Hourly Weather Savigliano

    Today, 7 April, Tuesday

    Time Temperature Precipitation Wind Pressure Humidity
    00:00 +10°C° 0 mm 1 mps 742 mmHg 62%
    01:00 +10°C° 0 mm 1 mps 742 mmHg 61%
    02:00 +10°C° 0 mm 1 mps 742 mmHg 60%
    03:00 +10°C° 0 mm 1 mps 742 mmHg 59%
    04:00 +9°C° 0 mm 1 mps 742 mmHg 58%
    05:00 +10°C° 0 mm 1 mps 742 mmHg 59%
    06:00 +10°C° 0 mm 1 mps 742 mmHg 59%
    07:00 +10°C° 0 mm 1 mps 742 mmHg 60%
    08:00 +12°C° 0 mm 1 mps 742 mmHg 55%
    09:00 +15°C° 0 mm 1 mps 742 mmHg 50%
    10:00 +18°C° 0 mm 1 mps 743 mmHg 44%
    11:00 +19°C° 0 mm 1 mps 742 mmHg 42%
    12:00 +20°C° 0 mm 1 mps 742 mmHg 39%
    13:00 +20°C° 0 mm 2 mps 742 mmHg 37%
    14:00 +21°C° 0 mm 1 mps 742 mmHg 37%
    15:00 +21°C° 0 mm 1 mps 742 mmHg 37%
    16:00 +21°C° 0 mm 1 mps 741 mmHg 38%
    17:00 +19°C° 0 mm 1 mps 741 mmHg 44%
    18:00 +16°C° 0 mm 1 mps 741 mmHg 51%
    19:00 +14°C° 0 mm 1 mps 741 mmHg 58%
    20:00 +13°C° 0 mm 1 mps 742 mmHg 59%
    21:00 +12°C° 0 mm 1 mps 742 mmHg 61%
    22:00 +12°C° 0 mm 1 mps 743 mmHg 63%
    23:00 +11°C° 0 mm 1 mps 743 mmHg 63%

    Tomorrow, 8 April, Wednesday

    Time Temperature Precipitation Wind Pressure Humidity
    00:00 +11°C° 0 mm 1 mps 743 mmHg 63%
    01:00 +10°C° 0 mm 1 mps 743 mmHg 64%
    02:00 +10°C° 0 mm 1 mps 742 mmHg 64%
    03:00 +10°C° 0 mm 1 mps 742 mmHg 64%
    04:00 +9°C° 0 mm 1 mps 742 mmHg 65%
    05:00 +9°C° 0 mm 1 mps 742 mmHg 64%
    06:00 +10°C° 0 mm 1 mps 742 mmHg 64%
    07:00 +10°C° 0 mm 1 mps 742 mmHg 63%
    08:00 +12°C° 0 mm 1 mps 742 mmHg 58%
    09:00 +14°C° 0 mm 1 mps 742 mmHg 52%
    10:00 +16°C° 0 mm 1 mps 741 mmHg 47%
    11:00 +18°C° 0 mm 1 mps 741 mmHg 44%
    12:00 +19°C° 0 mm 1 mps 741 mmHg 42%
    13:00 +20°C° 0 mm 1 mps 741 mmHg 40%
    14:00 +21°C° 0 mm 1 mps 740 mmHg 39%
    15:00 +21°C° 0 mm 1 mps 740 mmHg 38%
    16:00 +21°C° 0 mm 1 mps 740 mmHg 38%
    17:00 +19°C° 0 mm 1 mps 739 mmHg 44%
    18:00 +16°C° 0 mm 1 mps 739 mmHg 51%
    19:00 +14°C° 0 mm 1 mps 739 mmHg 57%
    20:00 +13°C° 0 mm 1 mps 739 mmHg 59%
    21:00 +12°C° 0 mm 1 mps 739 mmHg 60%
    22:00 +11°C° 0 mm 1 mps 740 mmHg 61%
    23:00 +11°C° 0 mm 1 mps 740 mmHg 61%

    Day after tomorrow, 9 April, Thursday

    Time Temperature Precipitation Wind Pressure Humidity
    00:00 +11°C° 0 mm 1 mps 739 mmHg 60%
    01:00 +10°C° 0 mm 1 mps 739 mmHg 59%
    02:00 +10°C° 0 mm 1 mps 739 mmHg 59%
    03:00 +10°C° 0 mm 1 mps 739 mmHg 58%
    04:00 +9°C° 0 mm 1 mps 739 mmHg 57%
    05:00 +10°C° 0 mm 1 mps 739 mmHg 57%
    06:00 +10°C° 0 mm 1 mps 739 mmHg 58%
    07:00 +11°C° 0 mm 1 mps 739 mmHg 58%
    08:00 +13°C° 0 mm 1 mps 739 mmHg 53%
    09:00 +15°C° 0 mm 1 mps 739 mmHg 48%
    10:00 +19°C° 0 mm 1 mps 739 mmHg 42%
    11:00 +20°C° 0 mm 1 mps 739 mmHg 40%
    12:00 +21°C° 0 mm 1 mps 738 mmHg 37%
    13:00 +22°C° 0 mm 1 mps 738 mmHg 34%
    14:00 +22°C° 0 mm 1 mps 738 mmHg 34%
    15:00 +22°C° 0 mm 1 mps 738 mmHg 33%
    16:00 +23°C° 0 mm 1 mps 737 mmHg 33%
    17:00 +21°C° 0 mm 1 mps 737 mmHg 39%
    18:00 +18°C° 0 mm 1 mps 737 mmHg 46%
    19:00 +15°C° 0 mm 1 mps 737 mmHg 53%
    20:00 +15°C° 0 mm 1 mps 737 mmHg 54%
    21:00 +14°C° 0 mm 1 mps 738 mmHg 55%
    22:00 +13°C° 0 mm 1 mps 738 mmHg 56%
    23:00 +13°C° 0 mm 1 mps 738 mmHg 55%

    10 April, Friday

    Time Temperature Precipitation Wind Pressure Humidity
    00:00 +12°C° 0 mm 1 mps 738 mmHg 54%
    01:00 +12°C° 0 mm 1 mps 738 mmHg 54%
    02:00 +12°C° 0 mm 1 mps 738 mmHg 54%
    03:00 +11°C° 0 mm 1 mps 738 mmHg 54%
    04:00 +11°C° 0 mm 1 mps 738 mmHg 54%
    05:00 +11°C° 0 mm 1 mps 738 mmHg 55%
    06:00 +12°C° 0 mm 1 mps 738 mmHg 56%
    07:00 +12°C° 0 mm 1 mps 738 mmHg 57%
    08:00 +14°C° 0 mm 1 mps 739 mmHg 53%
    09:00 +18°C° 0 mm 1 mps 739 mmHg 49%
    10:00 +20°C° 0 mm 1 mps 739 mmHg 45%
    11:00 +21°C° 0 mm 1 mps 739 mmHg 43%
    12:00 +22°C° 0 mm 1 mps 739 mmHg 41%
    13:00 +23°C° 0 mm 1 mps 739 mmHg 39%
    14:00 +23°C° 0 mm 1 mps 738 mmHg 39%
    15:00 +23°C° 0 mm 1 mps 738 mmHg 38%
    16:00 +23°C° 0 mm 1 mps 738 mmHg 37%
    17:00 +21°C° 0 mm 1 mps 738 mmHg 44%
    18:00 +19°C° 0 mm 1 mps 737 mmHg 51%
    19:00 +16°C° 0 mm 1 mps 737 mmHg 57%
    20:00 +15°C° 0 mm 1 mps 738 mmHg 59%
    21:00 +15°C° 0 mm 1 mps 738 mmHg 60%
    22:00 +14°C° 0 mm 1 mps 738 mmHg 61%
    23:00 +13°C° 0 mm 1 mps 738 mmHg 61%

    11 April, Saturday

    Time Temperature Precipitation Wind Pressure Humidity
    00:00 +13°C° 0 mm 1 mps 738 mmHg 61%
    01:00 +13°C° 0 mm 1 mps 738 mmHg 61%
    02:00 +12°C° 0 mm 1 mps 738 mmHg 60%
    03:00 +12°C° 0 mm 1 mps 738 mmHg 58%
    04:00 +12°C° 0 mm 1 mps 738 mmHg 57%
    05:00 +12°C° 0 mm 1 mps 738 mmHg 58%
    06:00 +13°C° 0 mm 1 mps 738 mmHg 58%
    07:00 +13°C° 0 mm 1 mps 738 mmHg 58%
    08:00 +15°C° 0 mm 1 mps 738 mmHg 54%
    09:00 +18°C° 0 mm 1 mps 738 mmHg 49%
    10:00 +21°C° 0 mm 1 mps 738 mmHg 45%
    11:00 +22°C° 0 mm 1 mps 738 mmHg 42%
    12:00 +23°C° 0 mm 1 mps 738 mmHg 38%
    13:00 +24°C° 0 mm 1 mps 738 mmHg 35%
    14:00 +24°C° 0 mm 2 mps 738 mmHg 34%
    15:00 +24°C° 0 mm 2 mps 737 mmHg 34%
    16:00 +24°C° 0 mm 3 mps 737 mmHg 34%
    17:00 +21°C° 0 mm 2 mps 737 mmHg 40%
    18:00 +18°C° 0 mm 2 mps 736 mmHg 46%
    19:00 +16°C° 0 mm 1 mps 736 mmHg 53%
    20:00 +15°C° 0 mm 1 mps 736 mmHg 54%
    21:00 +14°C° 0 mm 1 mps 737 mmHg 56%
    22:00 +13°C° 0 mm 1 mps 737 mmHg 57%
    23:00 +13°C° 0 mm 1 mps 737 mmHg 59%

    12 April, Sunday

    Time Temperature Precipitation Wind Pressure Humidity
    00:00 +12°C° 0 mm 1 mps 737 mmHg 61%
    01:00 +12°C° 0 mm 1 mps 737 mmHg 63%
    02:00 +12°C° 0 mm 1 mps 737 mmHg 65%
    03:00 +11°C° 0 mm 1 mps 736 mmHg 67%
    04:00 +11°C° 0 mm 1 mps 736 mmHg 69%
    05:00 +11°C° 0 mm 1 mps 736 mmHg 69%
    06:00 +12°C° 0 mm 1 mps 736 mmHg 69%
    07:00 +11°C° 0 mm 0 mps 736 mmHg 69%
    08:00 +14°C° 0 mm 1 mps 736 mmHg 63%
    09:00 +15°C° 0 mm 1 mps 736 mmHg 57%
    10:00 +18°C° 0 mm 1 mps 736 mmHg 51%
    11:00 +19°C° 0 mm 1 mps 735 mmHg 48%
    12:00 +19°C° 0 mm 2 mps 735 mmHg 44%
    13:00 +20°C° 0 mm 2 mps 735 mmHg 41%
    14:00 +20°C° 0 mm 2 mps 734 mmHg 42%
    15:00 +20°C° 0 mm 2 mps 734 mmHg 43%
    16:00 +19°C° 0 mm 2 mps 734 mmHg 44%
    17:00 +18°C° 0 mm 2 mps 733 mmHg 50%
    18:00 +16°C° 0 mm 2 mps 733 mmHg 56%
    19:00 +14°C° 0 mm 2 mps 733 mmHg 62%
    20:00 +13°C° 0 mm 1 mps 733 mmHg 62%
    21:00 +13°C° 0 mm 1 mps 733 mmHg 63%
    22:00 +12°C° 0 mm 1 mps 733 mmHg 63%
    23:00 +11°C° 0 mm 1 mps 733 mmHg 64%
    Show more